Fort Riley, KS

11:59 AM CST on February 28, 2017 (GMT -0600)
Marshall Army Air Field

Weather History for KFRI - March, 2013

Change the Weather History Date:

Sunday, March 10, 2013

  Actual Average (KMHK) Record (KMHK)
Temperature  
Mean Temperature 35 °F -  
Max Temperature 46 °F 49 °F 79 °F (2014)
Min Temperature 24 °F 24 °F 0 °F (1998)
Degree Days  
Heating Degree Days 30    
Moisture  
Dew Point 29 °F    
Average Humidity 95    
Maximum Humidity 100    
Minimum Humidity 80    
Precipitation  
Precipitation 0.07 in - - ()
Sea Level Pressure  
Sea Level Pressure 29.85 in    
Wind  
Wind Speed 13 mph (NNW)    
Max Wind Speed 21 mph    
Max Gust Speed 31 mph    
Visibility 8 miles    
Events Rain , Snow    
Averages and records for this station are not official NWS values.
T = Trace of Precipitation, MM = Missing Value Source: NWS Daily Summary

Daily Weather History Graph

Daily Weather History Graph

Search for Another Location

Airport or City:

Trip Planner

Search our weather history database for the weather conditions in past years. The results will help you decide how hot, cold, wet, or windy it might be!

Date:

Astronomy

Mar. 10, 2013 Rise Set
Actual Time 7:45 AM CDT 7:29 PM CDT
Civil Twilight 7:19 AM CDT 7:55 PM CDT
Nautical Twilight 6:48 AM CDT 8:26 PM CDT
Astronomical Twilight 6:17 AM CDT 8:58 PM CDT
Moon 6:46 AM CDT (3/10) 6:38 PM CDT (3/10)
Length of Visible Light 12h 36m
Length of Day
11h 43m
Waning Crescent, 2% of the Moon is Illuminated
Mar 10
Waning Crescent
Mar 11
New
Mar 19
First Quarter
Mar 27
Full
Apr 2
Last Quarter

Hourly Weather History & Observations

Time (CDT) Temp. Windchill Dew Point Humidity Pressure Visibility Wind Dir Wind Speed Gust Speed Precip Events Conditions
12:23 AM 46.4 °F 42.9 °F 46.4 °F 100% 29.61 in 10.0 mi North 6.9 mph - N/A   Overcast
12:58 AM 43.7 °F 37.3 °F 43.7 °F 100% 29.58 in 10.0 mi NNW 12.7 mph - N/A   Overcast
1:58 AM 41.0 °F 34.3 °F 41.0 °F 100% 29.65 in 10.0 mi North 11.5 mph 19.6 mph N/A   Overcast
3:24 AM 39.2 °F 29.8 °F 39.2 °F 100% 29.65 in 10.0 mi North 18.4 mph 27.6 mph N/A   Overcast
3:38 AM 39.2 °F 30.8 °F 39.2 °F 100% 29.64 in 10.0 mi North 15.0 mph 24.2 mph N/A   Overcast
3:58 AM 37.8 °F 29.4 °F 37.8 °F 100% 29.65 in 10.0 mi NNW 13.8 mph 20.7 mph 0.00 in   Overcast
4:48 AM 37.4 °F 28.5 °F 37.4 °F 100% 29.67 in 10.0 mi NNW 15.0 mph - N/A   Overcast
4:58 AM 37.4 °F 27.8 °F 37.4 °F 100% 29.69 in 10.0 mi North 17.3 mph 25.3 mph N/A   Overcast
5:02 AM 37.4 °F 29.3 °F 37.4 °F 100% 29.69 in 10.0 mi North 12.7 mph 25.3 mph N/A   Light Drizzle
5:32 AM 35.6 °F 25.9 °F 35.6 °F 100% 29.69 in 7.0 mi North 16.1 mph 27.6 mph N/A Rain Light Rain
5:58 AM 35.6 °F 26.6 °F 35.6 °F 100% 29.69 in 9.0 mi North 13.8 mph 21.9 mph 0.00 in   Light Drizzle
6:08 AM 35.6 °F 25.9 °F 35.6 °F 100% 29.70 in 10.0 mi North 16.1 mph 21.9 mph N/A   Light Drizzle
6:15 AM 35.6 °F 25.9 °F 35.6 °F 100% 29.71 in 10.0 mi North 16.1 mph 24.2 mph N/A   Overcast
6:18 AM 35.6 °F 26.2 °F 35.6 °F 100% 29.70 in 10.0 mi North 15.0 mph 24.2 mph N/A   Light Drizzle
6:33 AM 35.6 °F 26.6 °F 35.6 °F 100% 29.70 in 10.0 mi North 13.8 mph 20.7 mph N/A   Light Drizzle
6:36 AM 35.6 °F 26.2 °F 35.6 °F 100% 29.70 in 10.0 mi North 15.0 mph 21.9 mph N/A   Overcast
6:48 AM 35.6 °F 27.1 °F 35.6 °F 100% 29.73 in 10.0 mi NNW 12.7 mph 19.6 mph N/A   Light Drizzle
6:58 AM 35.1 °F 25.2 °F 35.1 °F 100% 29.73 in 10.0 mi North 16.1 mph 21.9 mph 0.01 in   Light Drizzle
7:43 AM 33.8 °F 24.3 °F 33.8 °F 100% 29.75 in 9.0 mi North 13.8 mph - N/A   Light Drizzle
7:58 AM 34.3 °F 24.2 °F 34.3 °F 100% 29.76 in 7.0 mi North 16.1 mph 23.0 mph 0.01 in Rain Light Rain
8:03 AM 33.8 °F 24.3 °F 33.8 °F 100% 29.76 in 7.0 mi North 13.8 mph 20.7 mph N/A Rain Light Rain
8:18 AM 33.8 °F 24.8 °F 33.8 °F 100% 29.76 in 6.0 mi North 12.7 mph 23.0 mph N/A Rain Light Rain
8:23 AM 33.8 °F 24.3 °F 33.8 °F 100% 29.77 in 6.0 mi North 13.8 mph 20.7 mph N/A Rain Light Rain
8:28 AM 33.8 °F 23.9 °F 33.8 °F 100% 29.77 in 6.0 mi North 15.0 mph 20.7 mph N/A Rain Light Rain
8:33 AM 33.8 °F 23.5 °F 33.8 °F 100% 29.77 in 6.0 mi North 16.1 mph 20.7 mph N/A   Light Drizzle
8:48 AM 33.8 °F 23.9 °F 33.8 °F 100% 29.77 in 9.0 mi North 15.0 mph 21.9 mph N/A   Light Drizzle
8:58 AM 33.8 °F 22.5 °F 33.8 °F 100% 29.77 in 10.0 mi North 19.6 mph 26.5 mph 0.02 in   Light Drizzle
9:05 AM 33.8 °F 23.9 °F 33.8 °F 100% 29.78 in 10.0 mi North 15.0 mph 26.5 mph N/A   Overcast
9:10 AM 33.8 °F 23.9 °F 33.8 °F 100% 29.80 in 10.0 mi North 15.0 mph 25.3 mph N/A   Overcast
9:21 AM 33.8 °F 25.8 °F 33.8 °F 100% 29.80 in 10.0 mi North 10.4 mph - N/A   Light Drizzle
9:31 AM 33.8 °F 22.8 °F 33.8 °F 100% 29.80 in 10.0 mi North 18.4 mph 25.3 mph N/A   Light Drizzle
9:41 AM 33.8 °F 24.8 °F 33.8 °F 100% 29.80 in 9.0 mi NNW 12.7 mph 20.7 mph N/A Rain Light Rain
9:51 AM 32.0 °F 23.0 °F 32.0 °F 100% 29.80 in 10.0 mi NNW 11.5 mph 25.3 mph N/A Rain Light Rain
9:56 AM 32.0 °F 21.6 °F 32.0 °F 100% 29.80 in 8.0 mi NNW 15.0 mph 19.6 mph N/A Rain Light Rain
9:58 AM 32.0 °F 22.1 °F 32.0 °F 100% 29.80 in 8.0 mi NNW 13.8 mph 19.6 mph 0.00 in Rain Light Rain
10:03 AM 32.0 °F 20.5 °F 32.0 °F 100% 29.80 in 7.0 mi North 18.4 mph 25.3 mph N/A Rain Light Rain
10:13 AM 32.0 °F 20.8 °F 32.0 °F 100% 29.81 in 10.0 mi North 17.3 mph 28.8 mph N/A Rain Light Rain
10:43 AM 32.0 °F 20.1 °F 32.0 °F 100% 29.82 in 8.0 mi NNW 19.6 mph 27.6 mph N/A Rain Light Rain
10:44 AM 32.0 °F 20.8 °F 32.0 °F 100% 29.82 in 7.0 mi NNW 17.3 mph 27.6 mph N/A Rain Light Freezing Rain
10:49 AM 32.0 °F 21.6 °F 32.0 °F 100% 29.82 in 4.0 mi NNW 15.0 mph 24.2 mph N/A Rain Light Freezing Rain
10:51 AM 32.0 °F 21.2 °F 32.0 °F 100% 29.83 in 3.0 mi NNW 16.1 mph 24.2 mph N/A Rain Light Freezing Rain
10:58 AM 31.1 °F 21.9 °F 31.1 °F 100% 29.83 in 3.0 mi NNW 11.5 mph 23.0 mph 0.02 in Rain Light Freezing Rain
11:02 AM 32.0 °F 22.1 °F 32.0 °F 100% 29.83 in 3.0 mi NNW 13.8 mph 23.0 mph N/A Rain Light Freezing Rain
11:32 AM 32.0 °F 23.0 °F 32.0 °F 100% 29.84 in 6.0 mi NNW 11.5 mph 19.6 mph N/A Rain Light Freezing Rain
11:37 AM 30.2 °F 21.3 °F 30.2 °F 100% 29.85 in 6.0 mi NNW 10.4 mph 19.6 mph N/A Rain Light Freezing Rain
11:55 AM 28.4 °F 17.0 °F 28.4 °F 100% 29.86 in 6.0 mi NNW 15.0 mph 21.9 mph N/A   Overcast
11:58 AM 29.1 °F 19.4 °F 28.9 °F 99% 29.86 in 6.0 mi NNW 11.5 mph 21.9 mph 0.01 in   Overcast
12:43 PM 28.4 °F 17.0 °F 26.6 °F 93% 29.87 in 10.0 mi NNW 15.0 mph 23.0 mph N/A   Light Freezing Rain
12:44 PM 28.4 °F 17.0 °F 26.6 °F 93% 29.87 in 10.0 mi NNW 15.0 mph 20.7 mph N/A   Overcast
12:49 PM 28.4 °F 15.8 °F 26.6 °F 93% 29.87 in 10.0 mi NNW 18.4 mph 24.2 mph N/A   Overcast
12:54 PM 28.4 °F 17.0 °F 26.6 °F 93% 29.87 in 10.0 mi NNW 15.0 mph 24.2 mph N/A   Overcast
12:58 PM 28.0 °F 17.5 °F 26.2 °F 93% 29.87 in 10.0 mi NNW 12.7 mph 24.2 mph 0.00 in   Overcast
1:17 PM 26.6 °F 14.3 °F 24.8 °F 93% 29.88 in 10.0 mi NNW 16.1 mph 21.9 mph N/A   Overcast
1:58 PM 27.1 °F 16.9 °F 25.3 °F 93% 29.88 in 10.0 mi NNW 11.5 mph 23.0 mph 0.00 in   Overcast
2:58 PM 28.4 °F 17.5 °F 26.6 °F 93% 29.88 in 2.5 mi NW 13.8 mph 25.3 mph 0.00 in Snow Light Snow
3:03 PM 28.4 °F 18.0 °F 26.6 °F 93% 29.88 in 2.5 mi NNW 12.7 mph 21.9 mph N/A Snow Light Snow
3:08 PM 28.4 °F 19.1 °F 28.4 °F 100% 29.88 in 2.5 mi NNW 10.4 mph 20.7 mph N/A Snow Light Snow
3:13 PM 28.4 °F 18.5 °F 26.6 °F 93% 29.88 in 3.0 mi NNW 11.5 mph 20.7 mph N/A Snow Light Snow
3:23 PM 28.4 °F 16.6 °F 26.6 °F 93% 29.89 in 4.0 mi NW 16.1 mph 20.7 mph N/A Snow Light Snow
3:33 PM 28.4 °F 17.5 °F 26.6 °F 93% 29.89 in 3.0 mi NNW 13.8 mph 25.3 mph N/A Snow Light Snow
3:38 PM 28.4 °F 15.1 °F 26.6 °F 93% 29.88 in 3.0 mi NNW 20.7 mph 26.5 mph N/A Snow Light Snow
3:43 PM 28.4 °F 16.6 °F 24.8 °F 86% 29.89 in 5.0 mi NNW 16.1 mph 27.6 mph N/A Snow Light Snow
3:58 PM 28.2 °F 15.9 °F 25.2 °F 88% 29.90 in 10.0 mi NNW 17.3 mph 26.5 mph 0.00 in   Overcast
4:10 PM 28.4 °F 16.2 °F 24.8 °F 86% 29.91 in 10.0 mi NNW 17.3 mph 31.1 mph N/A   Overcast
4:15 PM 28.4 °F 17.0 °F 23.0 °F 80% 29.91 in 10.0 mi NW 15.0 mph 31.1 mph N/A   Overcast
4:58 PM 27.7 °F 15.2 °F 22.8 °F 82% 29.93 in 10.0 mi NNW 17.3 mph 27.6 mph 0.00 in   Overcast
5:58 PM 27.0 °F 15.2 °F 22.3 °F 83% 29.94 in 10.0 mi NNW 15.0 mph 25.3 mph N/A   Overcast
6:38 PM 26.6 °F 16.2 °F 21.2 °F 80% 29.96 in 10.0 mi NNW 11.5 mph 24.2 mph N/A   Overcast
6:58 PM 26.4 °F 16.0 °F 22.5 °F 85% 29.96 in 10.0 mi NNW 11.5 mph 25.3 mph 0.00 in   Overcast
7:30 PM 26.6 °F 16.8 °F 23.0 °F 86% 29.97 in 10.0 mi NNW 10.4 mph 19.6 mph N/A   Overcast
7:37 PM 26.6 °F 15.2 °F 23.0 °F 86% 29.97 in 10.0 mi NNW 13.8 mph 20.7 mph N/A   Light Freezing Rain
7:47 PM 26.6 °F 15.2 °F 23.0 °F 86% 29.97 in 10.0 mi NW 13.8 mph 20.7 mph N/A   Overcast
7:58 PM 25.9 °F 13.8 °F 22.1 °F 86% 29.97 in 10.0 mi NNW 15.0 mph 20.7 mph 0.00 in   Overcast
8:13 PM 26.6 °F 16.2 °F 23.0 °F 86% 29.98 in 10.0 mi NW 11.5 mph - N/A   Overcast
8:34 PM 26.6 °F 15.7 °F 21.2 °F 80% 29.99 in 10.0 mi NW 12.7 mph 21.9 mph N/A   Overcast
8:58 PM 25.9 °F 13.8 °F 22.3 °F 86% 29.99 in 10.0 mi NNW 15.0 mph 24.2 mph 0.00 in   Overcast
9:03 PM 26.6 °F 17.5 °F 21.2 °F 80% 30.00 in 10.0 mi NW 9.2 mph 24.2 mph N/A   Overcast
9:13 PM 24.8 °F 15.3 °F 23.0 °F 93% 30.00 in 10.0 mi NW 9.2 mph 18.4 mph N/A   Overcast
9:22 PM 24.8 °F 15.3 °F 23.0 °F 93% 30.00 in 10.0 mi NW 9.2 mph - N/A   Overcast
9:30 PM 24.8 °F 12.4 °F 21.2 °F 86% 30.00 in 10.0 mi NW 15.0 mph 24.2 mph N/A   Light Freezing Rain
9:35 PM 24.8 °F 14.6 °F 21.2 °F 86% 30.01 in 10.0 mi NNW 10.4 mph 24.2 mph N/A   Overcast
9:40 PM 24.8 °F 14.6 °F 21.2 °F 86% 30.01 in 10.0 mi NW 10.4 mph 21.9 mph N/A   Overcast
9:49 PM 24.8 °F 16.1 °F 21.2 °F 86% 30.01 in 10.0 mi NW 8.1 mph 19.6 mph N/A   Overcast
9:53 PM 24.8 °F 14.6 °F 21.2 °F 86% 30.01 in 10.0 mi NW 10.4 mph 19.6 mph N/A   Overcast
9:58 PM 25.7 °F 14.6 °F 22.1 °F 86% 30.01 in 10.0 mi NW 12.7 mph 19.6 mph 0.00 in   Overcast
10:13 PM 24.8 °F 14.0 °F 23.0 °F 93% 30.01 in 10.0 mi NW 11.5 mph 17.3 mph N/A   Overcast
10:58 PM 24.8 °F 16.1 °F 23.2 °F 94% 30.01 in 4.0 mi NW 8.1 mph 19.6 mph 0.00 in Snow Light Snow
11:08 PM 24.8 °F 16.1 °F 23.0 °F 93% 30.01 in 3.0 mi NW 8.1 mph - N/A Snow Light Snow
11:23 PM 24.8 °F 16.9 °F 23.0 °F 93% 30.01 in 7.0 mi NW 6.9 mph 19.6 mph N/A   Overcast
11:58 PM 24.4 °F 15.6 °F 22.5 °F 92% 30.01 in 8.0 mi NW 8.1 mph - 0.00 in   Mostly Cloudy
12:03 AM 24.8 °F 19.1 °F 23.0 °F 93% 30.01 in 6.0 mi Variable 4.6 mph - N/A Snow Light Snow
12:28 AM 24.8 °F 14.6 °F 23.0 °F 93% 30.01 in 7.0 mi NW 10.4 mph - N/A Snow Light Snow
12:52 AM 24.8 °F 16.1 °F 23.0 °F 93% 30.01 in 10.0 mi NW 8.1 mph - N/A   Overcast
12:58 AM 24.6 °F 13.8 °F 21.9 °F 89% 30.01 in 10.0 mi NW 11.5 mph - 0.00 in   Overcast